Flag for U.S.A. Weather past 2 weeks in Dayton, Ohio, U.S.A.

Now
64 °F

Sunny.


Feels Like: 64 °F
Forecast: 60 / 82 °F
Wind: No wind

Location: Dayton / Wright-Patterson Air Force Base

Current Time: Aug 1, 2015 at 8:41:43 AM

Latest Report: Aug 1, 2015 at 7:58 AM


Visibility: 10 mi

Pressure: 29.98 "Hg

Humidity: 90%

Dew point: 61 °F

Location of DaytonLocation

Historic Weather in Dayton — Graph

°F

Dayton temperature yesterday

Maximum temperature yesterday: 86 °F (at 4:58 PM)
Minimum temperature yesterday: 64 °F (at 6:58 AM)
Average temperature yesterday: 74 °F

Past Weeks' High & Low Weather Summary

 TemperatureHumidityPressure
High92 °F (Jul 29, 3:58 PM)100% (Jul 19, 1:58 AM)30.06 "Hg (Jul 19, 1:58 AM)
Low55 °F (Jul 22, 6:58 AM)35% (Jul 22, 3:58 PM)29.73 "Hg (Jul 21, 3:58 AM)
Average76 °F76%29.95 "Hg
* Reported Jul 17 6:58 AM — Aug 1 6:58 AM, Dayton, Weather by CustomWeather, © 2015

Note: Actual official high and low records may vary slightly from our data, if they occured in-between our weather recording intervals... More about our weather records

Advertising

Dayton weather history for previous 24 hours

 ConditionsComfort  
Time TempWeatherWind HumidityBarometerVisibility
6:58 AM
Sat, Aug 1
62 °FClear.No wind93%29.96 "Hg10 mi
5:58 AM62 °FClear.No wind89%29.95 "Hg10 mi
4:58 AM63 °FClear.6 mph88%29.96 "Hg10 mi
3:58 AM64 °FClear.3 mph87%29.96 "Hg10 mi
2:58 AM68 °FClear.3 mph78%29.96 "Hg10 mi
1:58 AM70 °FClear.7 mph74%29.96 "Hg10 mi
12:58 AM71 °FClear.8 mph70%29.95 "Hg10 mi
11:58 PM
Fri, Jul 31
71 °FClear.No wind79%29.95 "Hg10 mi
10:58 PM70 °FPassing clouds.6 mph86%29.94 "Hg10 mi
9:58 PM74 °FPassing clouds.3 mph75%29.93 "Hg10 mi
8:58 PM74 °FPartly sunny.3 mph74%29.93 "Hg10 mi
7:58 PM79 °FPartly sunny.8 mph59%29.92 "Hg10 mi
6:58 PM82 °FPartly sunny.13 mph45%29.92 "Hg10 mi
5:58 PM86 °FPartly sunny.13 mph39%29.93 "Hg10 mi
4:58 PM86 °FPassing clouds.10 mph39%29.95 "Hg10 mi
3:58 PM85 °FPassing clouds.9 mph43%29.96 "Hg10 mi
2:58 PM85 °FPassing clouds.9 mph43%29.98 "Hg10 mi
1:58 PM84 °FPassing clouds.7 mph44%30.00 "Hg10 mi
12:58 PM83 °FPassing clouds.9 mph48%30.01 "Hg10 mi
11:58 AM81 °FSunny.7 mph56%30.03 "Hg10 mi
10:58 AM79 °FSunny.6 mph66%30.03 "Hg10 mi
9:58 AM76 °FSunny.5 mph70%30.03 "Hg10 mi
8:58 AM71 °FSunny.5 mph78%30.04 "Hg10 mi
Weather by CustomWeather, © 2015

See weather overviewHow to use our weather pages